レオナード彗星

P/2017 Y3 ( Leonard )

English version
Home page
Updated on May 21, 2018

---------------------------------------------------------------------

・ プロフィール

発見日 2017年12月26日
発見光度 19.8等
発見者 G. J. Leonard (Mount Lemmon)

・ 写真集

・ 軌道要素

Epoch 2018 Feb. 11.0 TT = JDT 2458160.5
T 2018 Feb. 11.26002 TT                                 MPCW
q   1.2753762            (2000.0)            P               Q
n   0.03183057     Peri.   67.52844     -0.70382591     +0.68047622
a   9.8606708      Node   153.87389     -0.69045072     -0.72280203
e   0.8706603      Incl.   27.58576     +0.16705358     -0.12045472
P  30.96
From 69 observations 2017 Dec. 26-2018 Mar. 24, mean residual 0".5.

・ 光度変化

        m1 = 16.0 + 5 logΔ + 10.0 log r

---------------------------------------------------------------------

軌道要素はM.P.E.C. 2018-F152に掲載されたものです。
光度グラフはComet for Windowsで作成したものです。

---------------------------------------------------------------------

Copyright(C) Seiichi Yoshida (comet@aerith.net). All rights reserved.